Terminal Aerodrome Forecast
Issued by NWS Blacksburg, VA

Current Version | Previous Version | Graphics & Text | Print | Product List | Glossary On
Versions: 1 2 3 4 5 6 7 8 9 10 11 12 13 14 15 16 17 18 19 20 21 22 23 24 25 26 27 28 29 30 31 32 33 34 35 36 37 38
000
FTUS41 KRNK 300531
TAFBLF
TAF
KBLF 300531Z 3006/3106 17005KT P6SM SCT015 BKN070
      TEMPO 3008/3012 BKN015
     FM301400 21007KT P6SM FEW025 BKN040
     FM310000 21005KT P6SM SCT040 BKN100=

USA.gov is the U.S. government's official web portal to all federal, state and local government web resources and services.